Location: Bacea
(45.9500°N, 22.6667°E)
Time: 20:36:20
(UTC+00:00)

USA 215 - Pass Details

Date: 16 October 2021
Orbit: 1099 x 1109 km, 123.0° (Epoch: 20 November)

Event Time Altitude Azimuth Distance (km) Brightness Sun altitude
Exits shadow 19:42:15 35° 336° (NNW) 1,713 4.5 -40.9°
Drops below altitude 10° 19:46:14 10° 311° (NW) 2,966 6.2 -41.4°
Sets 19:48:49 0° 305° (NW) 3,926 7.0 -41.8°
